カタログに戻る

STARLINK-36169

運用中通信VLEO
NORAD 66929·PAYLOAD·🇺🇸 United States

打ち上げ Dec 7, 2025 から Vandenberg Space Force Base

Loading…

次のパス (今後24時間)

TLE

最新Source: CelesTrak SupGP

元期: Sep 14, 2026, 20:45 UTC

1 66929C 25286E   26257.86506944  .00026222  00000+0  77441-3 0  2575
2 66929  53.1573 195.8150 0001033 106.6212 334.0568 15.34390756    15

AllMySatでSTARLINK-36169をリアルタイム追跡

Download on the App Store